Location: Newark
(59.8814°N, 10.8258°E)
Time: 21:04:11
(UTC+00:00)

Envisat - Pass Details

Date: 26 January 2020
Orbit: 764 x 766 km, 98.1° (Epoch: 23 February)

Event Time Altitude Azimuth Distance (km) Brightness Sun altitude
Rises 05:29:52 0° 19° (NNE) 3,249 6.4 -16.1°
Reaches altitude 10° 05:32:21 10° 27° (NNE) 2,318 5.7 -15.8°
Maximum altitude 05:37:07 38° 95° (E) 1,163 4.6 -15.2°
Drops below altitude 10° 05:41:50 10° 164° (SSE) 2,302 5.9 -14.7°
Sets 05:44:17 0° 172° (S) 3,224 6.5 -14.3°
